Location: Mount Graham
(32.7016°N, 109.8912°W)
Time: 02:48:19
(UTC-07:00)

Daily predictions for brighter satellites

Satellite Brightness Start Highest point End
(mag) Time Altitude Azimuth Time Altitude Azimuth Time Altitude Azimuth
CZ-3 R/B 4.5 01:02:15 10° W 02:30:20 52° SE 02:38:43 10° ESE
CZ-3 Stage 3 3.8 04:28:58 26° E 04:28:58 26° E 04:32:51 10° E
Cosmos 2237 Rocket 3.9 04:38:03 24° SSE 04:38:03 24° SSE 04:40:08 10° SSE
SL-16 R/B 3.4 04:39:13 36° NE 04:40:02 38° ENE 04:45:16 10° SE
Thor Agena Rocket 4.4 04:37:58 10° SE 04:42:30 48° E 04:42:30 48° E
USA 229 DEB 3.8 05:00:49 48° NNW 05:03:03 79° ENE 05:10:18 10° SSE
USA 229 3.8 05:00:52 48° NNW 05:03:08 78° ENE 05:10:23 10° SSE
Atlas 2A Centaur Rocket 3.9 05:03:22 28° S 05:03:22 28° S 05:06:13 10° ESE
Tsikada Rocket 3.9 05:04:13 56° NNW 05:05:42 84° W 05:11:58 10° S
NOAA 6 4.1 05:07:01 10° NNE 05:12:13 74° ESE 05:17:23 10° S
Cosmos 540 Rocket 4.4 05:14:27 34° S 05:14:27 34° S 05:17:23 10° S
Tiangong 2 2.9 05:25:45 31° E 05:25:45 31° E 05:27:35 10° ENE
Cosmos 1777 Rocket 4.1 05:19:58 10° S 05:25:09 74° ESE 05:30:21 10° NNE
Cosmos 783 Rocket 4.5 05:27:27 59° WSW 05:27:27 59° WSW 05:32:26 10° S
Aureole 2 Rocket 4.4 05:31:49 24° SSW 05:31:49 24° SSW 05:33:34 10° S
ERBS 4.0 05:33:13 25° NNE 05:33:52 27° NE 05:36:49 10° ESE
Cosmos 2151 3.2 05:36:01 14° N 05:39:35 71° E 05:43:49 10° SSE
Cosmos 2263 Rocket 4.2 05:35:04 10° SSE 05:39:52 29° ESE 05:44:42 10° NE
Cosmos 1743 Rocket 4.4 05:42:14 34° SW 05:42:14 34° SW 05:45:04 10° SSW
Aureole 1 4.2 05:46:27 66° N 05:46:27 66° N 05:49:28 10° NNE
DELTA 2 R/B (1) 3.6 05:45:40 38° W 05:47:42 65° NNW 05:53:14 10° ENE
COSMO-SKYMED 1 2.4 05:45:16 10° S 05:49:35 79° WSW 05:53:20 14° NNW
NOSS 3-1 (C) 4.2 05:49:02 10° NNW 05:56:49 78° ENE 06:05:16 10° SE
Cosmos 1538 Rocket 4.0 05:53:48 13° NNW 05:58:36 71° WSW 06:03:53 10° S
Cosmos 1805 Rocket 4.5 05:55:42 10° N 05:59:58 50° E 06:04:12 10° SSE
CZ-2C R/B 4.0 05:55:50 10° NNE 05:59:59 34° E 06:04:08 10° SSE
CZ-4 R/B 3.1 05:57:29 10° NNE 06:01:17 36° E 06:05:06 10° SSE
Cosmos 304 Rocket 4.3 06:00:38 29° WNW 06:02:11 37° W 06:06:34 10° SSW
Genesis I 3.8 05:59:39 16° NNW 06:02:40 56° ENE 06:06:30 10° SE
IDEFIX/ARIANE 42P 4.0 05:57:49 10° NNE 06:02:47 41° E 06:07:43 10° SSE
CSL-04 Rocket 3.6 05:58:14 10° NNE 06:03:33 88° ESE 06:08:49 10° SSW
GPS 2-05 Rocket1 3.1 06:03:05 38° NW 06:03:49 47° N 06:07:01 10° ENE
EP 2 4.3 06:01:46 10° SSW 06:04:27 76° ESE 06:07:02 10° NNE
Ariane Rocket 2.9 06:00:49 10° N 06:05:54 70° WNW 06:10:58 10° SSW
Cosmos 1500 Rocket 4.3 06:05:52 26° WNW 06:07:13 31° W 06:11:09 10° SSW
Cosmos 1328 4.4 06:06:42 28° WNW 06:07:46 33° W 06:11:22 10° SSW
CZ-3 R/B 4.4 06:03:21 15° W 06:10:12 18° WSW 06:16:34 10° SSW
Cosmos 1680 Rocket 4.4 06:08:57 10° N 06:14:08 50° ENE 06:19:16 10° SE
ISS -3.0 06:14:39 28° WNW 06:15:58 47° SW 06:19:05 10° SSE
Coronas F rocket 3.6 06:17:26 10° NNE 06:19:26 23° E 06:21:25 10° SE
YAOGAN 3 4.5 06:15:34 10° N 06:19:55 71° WNW 06:24:14 10° SSW
Sich 1 3.8 06:16:21 10° N 06:20:36 54° E 06:24:48 10° SSE
OAO 2 Rocket 3.3 06:17:32 20° WNW 06:20:58 78° SSW 06:25:53 10° ESE
ATLAS 2A CENTAUR R/B 4.3 06:05:54 16° W 06:21:21 50° SSW 06:26:06 10° SE
SL-16 R/B 3.3 06:21:11 17° WNW 06:23:50 23° W 06:28:11 10° SSW
ATLAS 2A CENTAUR R/B 3.2 06:21:31 12° WSW 06:24:40 26° SSW 06:26:31 10° SE
Cosmos 1633 Rocket 3.8 06:21:36 10° N 06:25:52 54° E 06:30:06 10° SSE
Cosmos 389 Rocket 2.7 06:22:44 10° S 06:26:24 80° E 06:30:04 10° N
PAYLOAD A 3.8 06:25:13 10° N 06:30:08 67° WNW 06:34:52 10° SSW
ATLAS 3B CENTAUR R/B 4.3 06:25:01 10° SW 06:31:11 54° SSE 06:48:44 10° E
Cosmos 1703 3.3 06:27:24 10° NNW 06:31:17 61° W 06:35:09 10° S
Cosmos 2034 Rocket 4.0 06:25:31 10° SSW 06:31:35 61° W 06:37:45 10° N
Meteor 1-28 Rocket 3.9 06:28:12 10° SSW 06:31:37 33° W 06:35:01 10° NNW
Cosmos 1271 Rocket 4.3 06:33:23 10° WSW 06:35:34 15° WNW 06:37:45 10° NW
Cosmos 1626 2.1 06:35:34 10° NNW 06:39:15 63° W 06:42:55 10° S
Nadezhda 4 Rocket 4.2 06:33:20 10° N 06:39:41 83° E 06:45:57 10° S
Cosmos 2058 4.0 06:38:49 10° NW 06:42:09 24° W 06:45:30 10° SW
Gbstr 26 Del rocket 3.8 06:37:16 10° WSW 06:42:27 62° NW 06:48:57 10° NE
Cosmos 1937 Rocket 4.4 06:39:24 10° S 06:44:23 53° ESE 06:49:23 10° NNE
YAOGAN 1 2.6 06:42:51 10° NNE 06:47:12 89° W 06:51:31 10° SSW
Cosmos 2298 Rocket 4.2 06:41:59 10° S 06:47:16 80° ESE 06:52:35 10° NNE
Cosmos 1184 Rocket 3.0 06:44:43 10° NNW 06:47:56 51° W 06:51:10 10° S
Cosmos 2112 Rocket 4.1 06:44:08 10° NNW 06:49:29 86° WSW 06:54:50 10° SSE
Cosmos 2221 3.9 06:47:07 10° WSW 06:50:06 18° WNW 06:53:05 10° NNW
Cosmos 1340 Rocket 4.2 06:48:00 10° NW 06:50:46 19° W 06:53:33 10° SW
MOS 1 4.4 06:46:49 10° NNE 06:52:33 89° WNW 06:58:15 10° SSW
Cosmos 1092 Rocket 4.2 06:52:13 10° N 06:58:31 83° E 07:04:43 10° S
